DW6743 Saro (Goteborg) SE current weather conditions

sailwx.info

Wind from 189 at 6 knots gusting 11

Air temperature 6.7° C
Dewpoint 5.8° C

Last reported at 2019-Dec-11 17:03 UTC.
Time now 2019-Dec-11 17:35 UTC

Location: N 57°31' E 011°57'.
View on Google Maps.

See reports from other nearby stations

  
Tides and Currents Weather Stations Pressure Air Temp Water Temp Dewpoint Dewpoint Depression Visibility Wind Speed Wind Dir Waves Ship Positions
date/time (UTC)wind fromknots sea level pressurealtimeterstation pressurevisibilityair tempwater tempwave heightnotes
2019-Dec-11 17:03 189 6 gusting 11 6.7
2019-Dec-11 16:48 190 7 gusting 13 6.7
2019-Dec-11 16:43 191 6 gusting 11 6.7
2019-Dec-11 16:38 183 6 gusting 11 6.7
2019-Dec-11 16:33 192 6 gusting 13 6.7
2019-Dec-11 16:18 184 6 gusting 10 6.7
2019-Dec-11 16:13 180 5 gusting 10 6.7
2019-Dec-11 16:08 179 6 gusting 10 6.7
2019-Dec-11 16:03 181 7 gusting 11 6.7
2019-Dec-11 15:48 184 7 gusting 12 6.7
2019-Dec-11 15:43 184 6 gusting 10 6.7
2019-Dec-11 15:38 175 6 gusting 10 6.7
2019-Dec-11 15:33 190 6 gusting 11 6.7
2019-Dec-11 15:18 181 6 gusting 13 6.7
2019-Dec-11 15:13 192 8 gusting 13 6.7
2019-Dec-11 15:08 183 7 gusting 12 6.7
2019-Dec-11 15:03 181 7 gusting 13 6.7
2019-Dec-11 14:48 200 8 gusting 13 6.7
2019-Dec-11 14:43 188 7 gusting 12 6.7
2019-Dec-11 14:38 191 6 gusting 12 6.7
2019-Dec-11 14:33 189 6 gusting 12 6.7
2019-Dec-11 14:18 183 7 gusting 11 6.7
2019-Dec-11 14:13 180 6 gusting 10 6.7
2019-Dec-11 14:08 187 6 gusting 11 6.7
2019-Dec-11 14:03 179 7 gusting 12 6.7
2019-Dec-11 13:48 189 6 gusting 12 6.7
2019-Dec-11 13:43 209 8 gusting 13 6.7
2019-Dec-11 13:38 191 6 gusting 12 6.7
2019-Dec-11 13:33 200 6 gusting 13 6.7
2019-Dec-11 13:18 200 8 gusting 11 6.7
2019-Dec-11 13:13 196 6 gusting 11 6.7
2019-Dec-11 13:08 191 6 gusting 12 7.2
2019-Dec-11 13:03 191 6 gusting 12 7.2
2019-Dec-11 12:48 210 5 gusting 13 7.2
2019-Dec-11 12:43 199 7 gusting 11 7.2
2019-Dec-11 12:38 198 8 gusting 12 7.2
2019-Dec-11 12:33 211 6 gusting 13 7.2
2019-Dec-11 12:18 206 8 gusting 15 7.2
2019-Dec-11 12:13 207 8 gusting 13 7.2
2019-Dec-11 12:08 200 8 gusting 15 7.2
2019-Dec-11 12:03 212 10 gusting 15 7.2
2019-Dec-11 11:48 206 11 gusting 14 7.2
2019-Dec-11 11:43 208 11 gusting 14 7.2
2019-Dec-11 11:38 207 8 gusting 13 7.2
2019-Dec-11 11:33 212 11 gusting 15 7.2
2019-Dec-11 11:18 208 10 gusting 14 7.2
2019-Dec-11 11:13 200 10 gusting 14 7.2
2019-Dec-11 11:08 201 10 gusting 17 7.2
2019-Dec-11 11:03 208 8 gusting 14 7.2
2019-Dec-11 10:48 212 10 gusting 15 7.2
2019-Dec-11 10:43 204 8 gusting 14 7.2
2019-Dec-11 10:38 191 8 gusting 13 7.2
2019-Dec-11 10:33 211 8 gusting 17 7.2
2019-Dec-11 10:18 214 11 gusting 17 7.2
2019-Dec-11 10:13 213 10 gusting 17 7.2
2019-Dec-11 10:08 208 8 gusting 13 7.2
2019-Dec-11 10:03 217 12 gusting 19 7.2
2019-Dec-11 09:48 216 11 gusting 19 7.2
2019-Dec-11 09:43 219 13 gusting 18 7.2
2019-Dec-11 09:38 220 11 gusting 17 7.2
2019-Dec-11 09:33 202 11 gusting 19 7.2
2019-Dec-11 09:18 215 11 gusting 17 7.2
2019-Dec-11 09:13 212 9 gusting 17 7.2
2019-Dec-11 09:08 204 11 gusting 17 7.2
2019-Dec-11 09:03 212 13 gusting 18 7.2
2019-Dec-11 08:48 213 12 gusting 17 7.2
2019-Dec-11 08:43 207 12 gusting 18 7.2
2019-Dec-11 08:38 213 13 gusting 18 7.2
2019-Dec-11 08:33 218 13 gusting 22 7.2
2019-Dec-11 08:18 216 13 gusting 19 6.7
2019-Dec-11 08:13 212 12 gusting 20 6.7
2019-Dec-11 08:08 218 13 gusting 20 6.7
2019-Dec-11 08:03 206 14 gusting 21 6.7
2019-Dec-11 07:48 214 15 gusting 21 6.7
2019-Dec-11 07:43 209 15 gusting 20 6.7
2019-Dec-11 07:38 216 11 gusting 18 6.7
2019-Dec-11 07:33 218 16 gusting 22 6.7
2019-Dec-11 07:18 217 15 gusting 21 6.7
2019-Dec-11 07:13 210 14 gusting 22 6.7
2019-Dec-11 07:08 209 15 gusting 22 6.7
2019-Dec-11 07:03 215 15 gusting 21 6.7
2019-Dec-11 06:48 211 14 gusting 19 6.7
2019-Dec-11 06:43 213 14 gusting 22 6.7
2019-Dec-11 06:38 224 16 gusting 24 6.1
2019-Dec-11 06:33 216 15 gusting 30 6.1
2019-Dec-11 06:18 205 17 gusting 26 6.1
2019-Dec-11 06:13 205 15 gusting 26 6.1
2019-Dec-11 06:08 204 16 gusting 22 6.1
2019-Dec-11 06:03 208 15 gusting 25 6.1
2019-Dec-11 05:48 206 20 gusting 26 6.1
2019-Dec-11 05:43 205 18 gusting 33 6.1
2019-Dec-11 05:38 207 18 gusting 28 6.1
2019-Dec-11 05:33 197 17 gusting 32 6.1
2019-Dec-11 05:18 189 21 gusting 27 5.6
2019-Dec-11 05:13 191 24 gusting 33 5.6
2019-Dec-11 05:08 203 21 gusting 30 5.6
2019-Dec-11 05:03 186 26 gusting 38 5.6
2019-Dec-11 04:48 185 24 gusting 30 5.6
2019-Dec-11 04:43 191 19 gusting 37 5.6
2019-Dec-11 04:38 185 21 gusting 33 5.6
2019-Dec-11 04:33 183 19 gusting 37 5.6
2019-Dec-11 04:18 209 24 gusting 34 5.6
2019-Dec-11 04:13 189 26 gusting 33 5.0
2019-Dec-11 04:08 181 21 gusting 30 5.0
2019-Dec-11 04:03 185 22 gusting 40 5.0
2019-Dec-11 03:48 189 24 gusting 38 5.0
2019-Dec-11 03:43 179 26 gusting 37 5.0
2019-Dec-11 03:38 198 22 gusting 31 5.0
2019-Dec-11 03:33 194 24 gusting 41 5.0
2019-Dec-11 03:18 186 24 gusting 35 5.0
2019-Dec-11 03:13 184 26 gusting 37 5.0
2019-Dec-11 03:08 183 20 gusting 34 5.0
2019-Dec-11 03:03 181 25 gusting 39 5.0
2019-Dec-11 02:48 189 22 gusting 37 5.0
2019-Dec-11 02:43 185 22 gusting 37 5.0
2019-Dec-11 02:38 193 22 gusting 35 5.0
2019-Dec-11 02:33 199 26 gusting 39 5.0
2019-Dec-11 02:18 181 24 gusting 37 5.0
2019-Dec-11 02:08 181 25 gusting 37 5.0
2019-Dec-11 02:03 182 25 gusting 39 5.0
2019-Dec-11 01:48 188 25 gusting 37 4.4
2019-Dec-11 01:43 181 22 gusting 34 4.4
2019-Dec-11 01:38 185 23 gusting 37 4.4
2019-Dec-11 01:33 183 27 gusting 42 4.4
2019-Dec-11 01:18 179 22 gusting 37 4.4
2019-Dec-11 01:13 180 24 gusting 45 4.4
2019-Dec-11 01:08 169 21 gusting 34 4.4
2019-Dec-11 01:03 180 20 gusting 37 4.4
2019-Dec-11 00:48 187 21 gusting 37 4.4
2019-Dec-11 00:43 182 27 gusting 39 4.4
2019-Dec-11 00:38 184 25 gusting 39 4.4
2019-Dec-11 00:33 189 25 gusting 42 4.4
2019-Dec-11 00:18 185 26 gusting 35 4.4
2019-Dec-11 00:13 164 24 gusting 46 4.4
2019-Dec-11 00:08 186 19 gusting 39 4.4
2019-Dec-11 00:03 175 20 gusting 40 4.4
2019-Dec-10 23:48 165 18 gusting 34 4.4
2019-Dec-10 23:43 175 22 gusting 33 4.4
2019-Dec-10 23:38 167 26 gusting 44 4.4
2019-Dec-10 23:33 177 28 gusting 39 4.4
2019-Dec-10 23:18 163 25 gusting 39 5.0
2019-Dec-10 23:13 174 22 gusting 39 5.0
2019-Dec-10 23:08 177 24 gusting 42 5.0
2019-Dec-10 23:03 171 26 gusting 37 5.0
2019-Dec-10 22:48 177 26 gusting 42 5.6
2019-Dec-10 22:43 176 26 gusting 37 5.6
2019-Dec-10 22:38 156 24 gusting 53 5.6
2019-Dec-10 22:33 169 26 gusting 46 5.6
2019-Dec-10 22:18 177 28 gusting 41 5.6
2019-Dec-10 22:13 190 22 gusting 33 5.6
2019-Dec-10 22:08 184 29 gusting 44 5.6
2019-Dec-10 22:03 168 25 gusting 45 5.6
2019-Dec-10 21:48 173 22 gusting 42 5.6
2019-Dec-10 21:43 181 27 gusting 42 5.6
2019-Dec-10 21:38 173 27 gusting 42 5.6
2019-Dec-10 21:33 184 28 gusting 42 5.6
2019-Dec-10 21:18 170 27 gusting 46 5.6
2019-Dec-10 21:13 169 26 gusting 37 5.6
2019-Dec-10 21:08 182 18 gusting 42 5.6
2019-Dec-10 21:03 170 30 gusting 41 5.6
2019-Dec-10 20:48 157 18 gusting 31 5.6
2019-Dec-10 20:43 164 17 gusting 27 5.6
2019-Dec-10 20:38 171 21 gusting 30 5.6
2019-Dec-10 20:33 169 20 gusting 38 5.6
2019-Dec-10 20:18 158 24 gusting 31 5.6
2019-Dec-10 20:13 163 24 gusting 35 5.6
2019-Dec-10 20:08 160 17 gusting 33 5.6
2019-Dec-10 20:03 167 22 gusting 39 5.6
2019-Dec-10 19:48 169 22 gusting 37 5.6
2019-Dec-10 19:43 189 19 gusting 27 5.6
2019-Dec-10 19:38 169 20 gusting 28 5.6
2019-Dec-10 19:33 166 19 gusting 39 5.6
2019-Dec-10 19:18 178 19 gusting 30 5.6
2019-Dec-10 19:13 166 15 gusting 26 5.6
2019-Dec-10 19:08 170 17 gusting 30 5.6
2019-Dec-10 19:03 172 19 gusting 32 5.6
2019-Dec-10 18:48 180 13 gusting 22 5.6
2019-Dec-10 18:43 172 19 gusting 31 5.6
2019-Dec-10 18:38 181 14 gusting 30 5.6
2019-Dec-10 18:33 167 15 gusting 30 5.6
2019-Dec-10 18:18 177 17 gusting 31 5.6
2019-Dec-10 18:13 180 16 gusting 22 5.6
2019-Dec-10 18:08 183 17 gusting 30 5.6
2019-Dec-10 18:03 182 19 gusting 28 5.6
2019-Dec-10 17:48 174 17 gusting 26 5.6
2019-Dec-10 17:43 182 15 gusting 22 5.6
2019-Dec-10 17:38 173 13 gusting 22 5.6
2019-Dec-10 17:33 174 18 gusting 32 5.6
2019-Dec-10 17:18 167 12 gusting 21 5.6
2019-Dec-10 17:13 165 12 gusting 18 5.6
2019-Dec-10 17:08 174 10 gusting 14 5.0
2019-Dec-10 17:03 175 12 gusting 22 5.0
2019-Dec-10 16:48 169 10 gusting 17 5.6
2019-Dec-10 16:43 179 10 gusting 21 5.6
2019-Dec-10 16:38 183 12 gusting 22 5.6
2019-Dec-10 16:33 182 9 gusting 19 5.6
2019-Dec-10 16:18 178 9 gusting 17 5.6
2019-Dec-10 16:13 186 10 gusting 13 5.6
2019-Dec-10 16:08 186 12 gusting 19 5.6
2019-Dec-10 16:03 177 10 gusting 18 5.0
2019-Dec-10 15:48 181 7 gusting 13 5.0
2019-Dec-10 15:43 189 10 gusting 13 5.0
2019-Dec-10 15:38 184 8 gusting 13 5.0
2019-Dec-10 15:33 185 10 gusting 15 5.0
2019-Dec-10 15:18 189 7 gusting 15 5.0
2019-Dec-10 15:13 191 8 gusting 13 5.0
2019-Dec-10 15:08 190 9 gusting 17 5.0
2019-Dec-10 15:03 193 9 gusting 17 5.0
2019-Dec-10 14:48 200 10 gusting 17 5.0
2019-Dec-10 14:43 201 9 gusting 15 4.4
2019-Dec-10 14:38 192 8 gusting 14 4.4
2019-Dec-10 14:33 188 7 gusting 13 3.9
2019-Dec-10 14:18 150 7 gusting 10 3.3
2019-Dec-10 14:13 147 8 gusting 13 3.3
2019-Dec-10 14:08 151 11 gusting 19 3.3
2019-Dec-10 14:03 131 8 gusting 14 3.3
2019-Dec-10 13:48 142 11 gusting 15 2.8
2019-Dec-10 13:43 144 10 gusting 17 2.8
2019-Dec-10 13:38 145 11 gusting 15 2.8
2019-Dec-10 13:33 150 9 gusting 15 2.8
2019-Dec-10 13:18 152 10 gusting 13 2.2
2019-Dec-10 13:13 144 9 gusting 12 2.2
2019-Dec-10 13:08 145 8 gusting 10 2.2
2019-Dec-10 13:03 143 8 gusting 13 2.2
2019-Dec-10 12:48 139 7 gusting 10 2.2
2019-Dec-10 12:43 145 8 gusting 13 2.2
2019-Dec-10 12:38 149 8 gusting 13 2.2
2019-Dec-10 12:33 144 8 gusting 12 2.2
2019-Dec-10 12:18 136 6 gusting 8 2.2
2019-Dec-10 12:13 151 6 gusting 10 1.7
2019-Dec-10 12:08 148 7 gusting 10 1.7
2019-Dec-10 12:03 137 7 gusting 12 1.7
2019-Dec-10 11:48 134 7 gusting 12 1.1
2019-Dec-10 11:43 132 8 gusting 11 1.1
2019-Dec-10 11:38 132 9 gusting 12 1.1
2019-Dec-10 11:33 130 7 gusting 11 1.1
2019-Dec-10 11:18 133 6 gusting 10 1.1
2019-Dec-10 11:13 132 7 gusting 10 1.1
2019-Dec-10 11:08 140 6 gusting 10 1.1
2019-Dec-10 11:03 131 6 gusting 11 1.1
2019-Dec-10 10:48 132 6 gusting 10 0.6
2019-Dec-10 10:43 135 6 gusting 8 0.6
2019-Dec-10 10:38 134 6 gusting 7 0.6
2019-Dec-10 10:33 141 6 gusting 8 0.6
2019-Dec-10 10:18 133 4 gusting 7 0.6
2019-Dec-10 10:13 123 2 gusting 7 -0.0
2019-Dec-10 10:08 124 2 gusting 7 -0.0
2019-Dec-10 10:03 116 4 gusting 8 -0.0
2019-Dec-10 09:48 118 5 gusting 6 -1.1
2019-Dec-10 09:43 115 6 gusting 7 -1.1
2019-Dec-10 09:38 117 6 gusting 7 -1.7
2019-Dec-10 09:33 113 6 gusting 8 -1.7
2019-Dec-10 09:18 111 6 gusting 8 -2.2
2019-Dec-10 09:13 117 6 gusting 6 -2.2
2019-Dec-10 09:08 119 5 gusting 6 -2.2
2019-Dec-10 09:03 119 4 gusting 6 -2.8
2019-Dec-10 08:48 094 4 gusting 6 -2.8
2019-Dec-10 08:43 092 3 gusting 5 -2.8
2019-Dec-10 08:38 092 4 gusting 5 -2.8
2019-Dec-10 08:33 090 4 gusting 6 -3.3
2019-Dec-10 08:18 003 -3.9
2019-Dec-10 08:13 341 -3.9
2019-Dec-10 08:08 341 -3.9
2019-Dec-10 08:03 339 -3.9
2019-Dec-10 07:48 339 -3.9
2019-Dec-10 07:43 339 -3.9
2019-Dec-10 07:38 339 -3.9
2019-Dec-10 07:33 339 -3.9
2019-Dec-10 07:18 339 -3.9
2019-Dec-10 07:13 338 -3.9
2019-Dec-10 07:08 338 -3.9
2019-Dec-10 07:03 338 -3.9
2019-Dec-10 06:48 338 -3.3
2019-Dec-10 06:43 339 -3.3
2019-Dec-10 06:38 339 -3.3
2019-Dec-10 06:33 339 -2.8
2019-Dec-10 06:18 340 -3.3
2019-Dec-10 06:13 340 -3.3
2019-Dec-10 06:08 340 -3.3
2019-Dec-10 06:03 340 -2.8
2019-Dec-10 05:48 340 -2.8
2019-Dec-10 05:43 340 1 gusting 2 -2.8
2019-Dec-10 05:38 340 1 gusting 2 -2.8
2019-Dec-10 05:33 340 2 gusting 4 -2.8
2019-Dec-10 05:18 336 4 gusting 4 -2.2
2019-Dec-10 05:13 340 4 gusting 4 -2.2
2019-Dec-10 05:08 345 4 gusting 5 -2.2
2019-Dec-10 05:03 347 4 gusting 5 -2.2
2019-Dec-10 04:48 344 5 gusting 5 -1.7
2019-Dec-10 04:43 352 4 gusting 5 -1.7
2019-Dec-10 04:38 350 3 gusting 4 -1.7
2019-Dec-10 04:33 355 2 gusting 5 -1.7
2019-Dec-10 04:18 353 4 gusting 5 -1.1
2019-Dec-10 04:13 005 4 gusting 6 -1.1
2019-Dec-10 04:08 356 5 gusting 7 -1.1
2019-Dec-10 04:03 357 6 gusting 7 -1.1
2019-Dec-10 03:48 001 7 gusting 8 -0.6
2019-Dec-10 03:43 355 7 gusting 8 -0.6
2019-Dec-10 03:38 354 7 gusting 8 -0.6
2019-Dec-10 03:33 349 7 gusting 11 -0.6
2019-Dec-10 03:18 346 8 gusting 11 -0.6
2019-Dec-10 03:13 348 8 gusting 10 -0.6
2019-Dec-10 03:08 347 8 gusting 10 -0.6
2019-Dec-10 03:03 346 7 gusting 10 -0.6
2019-Dec-10 02:48 347 7 gusting 10 -0.6
2019-Dec-10 02:43 347 7 gusting 10 -0.6
2019-Dec-10 02:38 352 7 gusting 10 -0.6
2019-Dec-10 02:33 353 7 gusting 8 -0.6
2019-Dec-10 02:18 353 6 gusting 7 -0.6
2019-Dec-10 02:13 348 7 gusting 8 -0.6
2019-Dec-10 02:08 346 6 gusting 8 -0.6
2019-Dec-10 02:03 344 7 gusting 8 -0.6
2019-Dec-10 01:48 356 6 gusting 7 -0.6
2019-Dec-10 01:43 355 6 gusting 7 -0.0
2019-Dec-10 01:38 001 6 gusting 10 -0.0
2019-Dec-10 01:33 356 7 gusting 11 -0.0
2019-Dec-10 01:18 006 10 gusting 11 0.6
2019-Dec-10 01:13 357 10 gusting 12 0.6
2019-Dec-10 01:08 355 9 gusting 12 0.6
2019-Dec-10 01:03 350 9 gusting 14 0.6
2019-Dec-10 00:48 353 9 gusting 12 0.6
2019-Dec-10 00:38 356 7 gusting 10 0.6
2019-Dec-10 00:33 003 8 gusting 13 0.6
2019-Dec-10 00:18 350 10 gusting 13 0.6
2019-Dec-10 00:13 353 9 gusting 13 0.6
2019-Dec-10 00:08 355 10 gusting 13 0.6
2019-Dec-10 00:03 002 11 gusting 14 0.6
2019-Dec-09 23:48 003 11 gusting 15 1.1
2019-Dec-09 23:43 355 12 gusting 17 1.1
2019-Dec-09 23:38 357 11 gusting 17 1.1
2019-Dec-09 23:33 358 13 gusting 19 1.1
2019-Dec-09 23:18 354 9 gusting 14 1.1
2019-Dec-09 23:13 010 10 gusting 15 1.1
2019-Dec-09 23:08 1.1
2019-Dec-09 23:03 358 12 gusting 17 1.1
2019-Dec-09 22:48 358 10 gusting 17 1.7
2019-Dec-09 22:43 001 11 gusting 17 1.7
2019-Dec-09 22:38 357 13 gusting 19 1.7
2019-Dec-09 22:33 003 14 gusting 19 1.7
2019-Dec-09 22:18 347 13 gusting 18 1.7
2019-Dec-09 22:13 1.7
2019-Dec-09 22:08 356 14 gusting 19 1.7
2019-Dec-09 22:03 348 15 gusting 24 1.7
2019-Dec-09 21:48 344 16 gusting 24 1.7
2019-Dec-09 21:43 347 14 gusting 19 1.7
2019-Dec-09 21:38 344 15 gusting 24 1.7
2019-Dec-09 21:33 345 16 gusting 26 1.7
2019-Dec-09 21:18 344 19 gusting 24 2.2
2019-Dec-09 21:13 354 17 gusting 26 2.2
2019-Dec-09 21:08 345 18 gusting 22 1.7
2019-Dec-09 21:03 350 19 gusting 25 1.7
2019-Dec-09 20:48 352 17 gusting 22 2.2
2019-Dec-09 20:43 346 18 gusting 22 2.2
2019-Dec-09 20:38 356 19 gusting 26 2.2
2019-Dec-09 20:33 2.2
2019-Dec-09 20:18 003 15 gusting 19 1.7
2019-Dec-09 20:13 351 17 gusting 22 1.7
2019-Dec-09 20:08 349 20 gusting 30 1.7
2019-Dec-09 20:03 001 17 gusting 32 1.7
2019-Dec-09 19:48 351 22 gusting 30 1.7
2019-Dec-09 19:43 349 24 gusting 30 1.7
2019-Dec-09 19:38 356 25 gusting 31 1.7
2019-Dec-09 19:33 346 25 gusting 31 1.7
2019-Dec-09 19:18 351 22 gusting 31 1.7
2019-Dec-09 19:13 343 19 gusting 31 1.7
2019-Dec-09 19:08 340 19 gusting 27 1.7
2019-Dec-09 19:03 347 19 gusting 27 1.7
2019-Dec-09 18:48 349 17 gusting 22 1.7
2019-Dec-09 18:43 349 16 gusting 26 1.7
2019-Dec-09 18:38 352 19 gusting 26 1.7
2019-Dec-09 18:33 351 17 gusting 22 2.2
2019-Dec-09 18:18 355 19 gusting 22 2.2
2019-Dec-09 18:13 357 17 gusting 21 2.2
2019-Dec-09 18:08 356 20 gusting 27 2.2
2019-Dec-09 18:03 351 15 gusting 26 2.8
2019-Dec-09 17:48 010 12 gusting 18 3.3
2019-Dec-09 17:43 001 18 gusting 21 3.3
2019-Dec-09 17:34 357 17 gusting 33 3.3
2019-Dec-09 17:18 358 14 gusting 22 4.4
2019-Dec-09 17:13 344 20 gusting 26 4.4
2019-Dec-09 17:08 352 20 gusting 25 5.0
2019-Dec-09 17:03 344 18 gusting 25 5.0